Terminal Aerodrome Forecast
Issued by NWS Des Moines, IA

Home | Current Version | Previous Version | Text Only | Print | Product List | Glossary On
Versions: 1 2 3 4 5 6 7 8 9 10 11 12 13 14 15 16 17 18 19 20 21 22 23 24 25 26 27 28 29 30 31 32 33 34 35 36 37 38 39 40 41 42 43 44 45
000
FTUS43 KDMX 061954 AAA
TAFDSM
TAF AMD
KDSM 061954Z 0620/0718 21010KT P6SM SCT200
     FM071000 27011KT P6SM BKN200
     FM071600 28017G24KT P6SM SCT200=

USA.gov is the U.S. government's official web portal to all federal, state and local government web resources and services.